When you browse on this site, cookies collect data to enhance your experience and personalize the content and advertising you see.
Visit our Privacy Policy to learn more. By continuing to use the site, you agree to this use of cookies and data.
  • In Österreich
  • Länderverzeichnis
  • Für 7 Tage
  • Wassertemperatur
  • Wetterkarte
  • News
  • Widgets
  • user-avatar
    Anmelden

    Stündliche Wetter Saafrana

    Heute, 15 September, Sonntag

    Zeit Temperatur Niederschläge Wind Luftdruck Luftfeuchtigkeit
    00:00 +25°C° 0 mm 2 m/S 743 mmHg 57%
    01:00 +24°C° 0 mm 2 m/S 742 mmHg 61%
    02:00 +24°C° 0 mm 2 m/S 742 mmHg 66%
    03:00 +23°C° 0 mm 2 m/S 742 mmHg 67%
    04:00 +23°C° 0 mm 2 m/S 742 mmHg 68%
    05:00 +23°C° 0 mm 2 m/S 743 mmHg 69%
    06:00 +25°C° 0 mm 2 m/S 743 mmHg 63%
    07:00 +26°C° 0 mm 2 m/S 743 mmHg 57%
    08:00 +28°C° 0 mm 2 m/S 743 mmHg 50%
    09:00 +29°C° 0 mm 3 m/S 743 mmHg 46%
    10:00 +31°C° 0 mm 3 m/S 743 mmHg 42%
    11:00 +33°C° 0 mm 3 m/S 743 mmHg 38%
    12:00 +34°C° 0 mm 4 m/S 743 mmHg 36%
    13:00 +34°C° 0 mm 4 m/S 742 mmHg 34%
    14:00 +35°C° 0 mm 4 m/S 742 mmHg 32%
    15:00 +35°C° 0 mm 4 m/S 742 mmHg 31%
    16:00 +34°C° 0 mm 4 m/S 742 mmHg 31%
    17:00 +34°C° 0 mm 3 m/S 742 mmHg 30%
    18:00 +31°C° 0 mm 3 m/S 742 mmHg 37%
    19:00 +29°C° 0 mm 3 m/S 743 mmHg 43%
    20:00 +27°C° 0 mm 3 m/S 743 mmHg 50%
    21:00 +26°C° 0 mm 3 m/S 743 mmHg 54%
    22:00 +26°C° 0 mm 2 m/S 743 mmHg 58%
    23:00 +25°C° 0 mm 2 m/S 743 mmHg 62%

    Morgen, 16 September, Montag

    Zeit Temperatur Niederschläge Wind Luftdruck Luftfeuchtigkeit
    00:00 +24°C° 0 mm 2 m/S 743 mmHg 64%
    01:00 +24°C° 0 mm 2 m/S 743 mmHg 65%
    02:00 +24°C° 0 mm 1 m/S 743 mmHg 67%
    03:00 +23°C° 0 mm 1 m/S 743 mmHg 69%
    04:00 +23°C° 0 mm 1 m/S 743 mmHg 71%
    05:00 +22°C° 0 mm 1 m/S 743 mmHg 73%
    06:00 +24°C° 0 mm 1 m/S 744 mmHg 66%
    07:00 +26°C° 0 mm 1 m/S 744 mmHg 58%
    08:00 +28°C° 0 mm 1 m/S 744 mmHg 50%
    09:00 +30°C° 0 mm 2 m/S 744 mmHg 44%
    10:00 +31°C° 0 mm 2 m/S 744 mmHg 39%
    11:00 +34°C° 0 mm 3 m/S 744 mmHg 33%
    12:00 +35°C° 0 mm 3 m/S 743 mmHg 30%
    13:00 +35°C° 0 mm 3 m/S 743 mmHg 28%
    14:00 +36°C° 0 mm 3 m/S 743 mmHg 25%
    15:00 +36°C° 0 mm 4 m/S 742 mmHg 25%
    16:00 +35°C° 0 mm 4 m/S 742 mmHg 26%
    17:00 +35°C° 0 mm 4 m/S 742 mmHg 26%
    18:00 +31°C° 0 mm 3 m/S 742 mmHg 31%
    19:00 +29°C° 0 mm 2 m/S 743 mmHg 36%
    20:00 +27°C° 0 mm 1 m/S 743 mmHg 41%
    21:00 +27°C° 0 mm 2 m/S 743 mmHg 42%
    22:00 +26°C° 0 mm 2 m/S 744 mmHg 44%
    23:00 +26°C° 0 mm 2 m/S 744 mmHg 45%

    übermorgen, 17 September, Dienstag

    Zeit Temperatur Niederschläge Wind Luftdruck Luftfeuchtigkeit
    00:00 +26°C° 0 mm 2 m/S 744 mmHg 47%
    01:00 +25°C° 0 mm 2 m/S 743 mmHg 50%
    02:00 +25°C° 0 mm 2 m/S 743 mmHg 52%
    03:00 +24°C° 0 mm 2 m/S 743 mmHg 52%
    04:00 +24°C° 0 mm 2 m/S 743 mmHg 52%
    05:00 +24°C° 0 mm 2 m/S 744 mmHg 53%
    06:00 +26°C° 0 mm 3 m/S 744 mmHg 47%
    07:00 +28°C° 0 mm 3 m/S 744 mmHg 41%
    08:00 +30°C° 0 mm 4 m/S 744 mmHg 35%
    09:00 +33°C° 0 mm 4 m/S 744 mmHg 33%
    10:00 +34°C° 0 mm 5 m/S 744 mmHg 30%
    11:00 +35°C° 0 mm 6 m/S 744 mmHg 28%
    12:00 +36°C° 0 mm 6 m/S 744 mmHg 26%
    13:00 +36°C° 0 mm 6 m/S 743 mmHg 25%
    14:00 +38°C° 0 mm 7 m/S 742 mmHg 23%
    15:00 +38°C° 0 mm 6 m/S 742 mmHg 23%
    16:00 +36°C° 0 mm 6 m/S 742 mmHg 24%
    17:00 +35°C° 0 mm 6 m/S 742 mmHg 24%
    18:00 +33°C° 0 mm 5 m/S 743 mmHg 33%
    19:00 +30°C° 0 mm 5 m/S 743 mmHg 41%
    20:00 +28°C° 0 mm 5 m/S 744 mmHg 49%
    21:00 +27°C° 0 mm 4 m/S 744 mmHg 53%
    22:00 +26°C° 0 mm 4 m/S 744 mmHg 57%
    23:00 +25°C° 0 mm 4 m/S 744 mmHg 60%

    18 September, Mittwoch

    Zeit Temperatur Niederschläge Wind Luftdruck Luftfeuchtigkeit
    00:00 +24°C° 0 mm 3 m/S 744 mmHg 60%
    01:00 +24°C° 0 mm 3 m/S 744 mmHg 60%
    02:00 +22°C° 0 mm 3 m/S 744 mmHg 60%
    03:00 +22°C° 0 mm 3 m/S 744 mmHg 60%
    04:00 +22°C° 0 mm 3 m/S 744 mmHg 59%
    05:00 +22°C° 0 mm 3 m/S 744 mmHg 59%
    06:00 +25°C° 0 mm 3 m/S 744 mmHg 51%
    07:00 +27°C° 0 mm 4 m/S 744 mmHg 44%
    08:00 +29°C° 0 mm 4 m/S 745 mmHg 36%
    09:00 +32°C° 0 mm 5 m/S 745 mmHg 33%
    10:00 +34°C° 0 mm 5 m/S 744 mmHg 30%
    11:00 +36°C° 0 mm 6 m/S 744 mmHg 27%
    12:00 +36°C° 0 mm 6 m/S 744 mmHg 25%
    13:00 +38°C° 0 mm 6 m/S 743 mmHg 24%
    14:00 +39°C° 0 mm 6 m/S 743 mmHg 23%
    15:00 +39°C° 0 mm 6 m/S 742 mmHg 24%
    16:00 +38°C° 0 mm 6 m/S 742 mmHg 24%
    17:00 +37°C° 0 mm 5 m/S 742 mmHg 25%
    18:00 +34°C° 0 mm 5 m/S 743 mmHg 33%
    19:00 +30°C° 0 mm 5 m/S 743 mmHg 41%
    20:00 +28°C° 0 mm 5 m/S 744 mmHg 50%
    21:00 +27°C° 0 mm 4 m/S 744 mmHg 52%
    22:00 +27°C° 0 mm 4 m/S 744 mmHg 55%
    23:00 +26°C° 0 mm 3 m/S 744 mmHg 57%

    19 September, Donnerstag

    Zeit Temperatur Niederschläge Wind Luftdruck Luftfeuchtigkeit
    00:00 +25°C° 0 mm 3 m/S 744 mmHg 56%
    01:00 +25°C° 0 mm 3 m/S 744 mmHg 55%
    02:00 +25°C° 0 mm 3 m/S 744 mmHg 54%
    03:00 +24°C° 0 mm 2 m/S 744 mmHg 52%
    04:00 +24°C° 0 mm 2 m/S 744 mmHg 51%
    05:00 +24°C° 0 mm 2 m/S 744 mmHg 49%
    06:00 +26°C° 0 mm 2 m/S 744 mmHg 45%
    07:00 +28°C° 0 mm 3 m/S 744 mmHg 40%
    08:00 +30°C° 0 mm 3 m/S 744 mmHg 35%
    09:00 +31°C° 0 mm 3 m/S 744 mmHg 32%
    10:00 +34°C° 0 mm 4 m/S 744 mmHg 29%
    11:00 +36°C° 0 mm 4 m/S 744 mmHg 25%
    12:00 +37°C° 0 mm 4 m/S 744 mmHg 24%
    13:00 +37°C° 0 mm 4 m/S 743 mmHg 22%
    14:00 +38°C° 0 mm 4 m/S 743 mmHg 21%
    15:00 +38°C° 0 mm 4 m/S 742 mmHg 22%
    16:00 +37°C° 0 mm 5 m/S 742 mmHg 24%
    17:00 +36°C° 0 mm 5 m/S 742 mmHg 25%
    18:00 +34°C° 0 mm 5 m/S 743 mmHg 33%
    19:00 +30°C° 0 mm 5 m/S 743 mmHg 40%
    20:00 +28°C° 0 mm 5 m/S 743 mmHg 48%
    21:00 +27°C° 0 mm 4 m/S 744 mmHg 53%
    22:00 +26°C° 0 mm 4 m/S 744 mmHg 59%
    23:00 +25°C° 0 mm 3 m/S 744 mmHg 64%

    20 September, Freitag

    Zeit Temperatur Niederschläge Wind Luftdruck Luftfeuchtigkeit
    00:00 +25°C° 0 mm 3 m/S 744 mmHg 65%
    01:00 +24°C° 0 mm 3 m/S 744 mmHg 67%
    02:00 +24°C° 0 mm 3 m/S 743 mmHg 68%
    03:00 +22°C° 0 mm 3 m/S 743 mmHg 68%
    04:00 +22°C° 0 mm 3 m/S 743 mmHg 69%
    05:00 +22°C° 0 mm 3 m/S 743 mmHg 69%
    06:00 +24°C° 0 mm 3 m/S 743 mmHg 61%
    07:00 +26°C° 0 mm 4 m/S 743 mmHg 53%
    08:00 +28°C° 0 mm 4 m/S 744 mmHg 46%
    09:00 +30°C° 0 mm 4 m/S 743 mmHg 38%
    10:00 +32°C° 0 mm 4 m/S 743 mmHg 31%
    11:00 +34°C° 0 mm 5 m/S 743 mmHg 23%
    12:00 +35°C° 0 mm 5 m/S 743 mmHg 20%
    13:00 +36°C° 0 mm 5 m/S 742 mmHg 18%
    14:00 +39°C° 0 mm 6 m/S 742 mmHg 15%
    15:00 +37°C° 0 mm 5 m/S 742 mmHg 16%
    16:00 +36°C° 0 mm 5 m/S 742 mmHg 17%
    17:00 +35°C° 0 mm 5 m/S 742 mmHg 18%
    18:00 +33°C° 0 mm 5 m/S 742 mmHg 26%
    19:00 +29°C° 0 mm 4 m/S 742 mmHg 33%
    20:00 +27°C° 0 mm 4 m/S 743 mmHg 41%
    21:00 +26°C° 0 mm 4 m/S 743 mmHg 46%
    22:00 +25°C° 0 mm 3 m/S 743 mmHg 51%
    23:00 +24°C° 0 mm 3 m/S 743 mmHg 56%
    Mehr zeigen